CAPE
1983 1785 1659 1353 1022 580 249 83 307 196 334 376 528 726 820 776 658 878 643 513 277 138 1 858 990 992 847 520 272 118 156 317 374 103 154 225 155 68 0 135 750 692 600
2238 2017 1830 1426 1155 719 299 82 132 188 370 390 433 648 629 720 703 890 1100 981 970 781 663 990 1092 1083 999 872 453 656 629 396 609 334 344 388 396 307 365 485 678 1039 1104
2375 2190 1844 1623 1310 972 691 228 102 129 279 110 192 642 662 690 1113 1118 928 656 477 903 926 681 841 882 435 478 688 525 499 480 473 380 379 311 402 270 535 638 941 1030 1086
2413 2242 1975 1692 1558 1252 1034 720 354 157 314 387 264 526 480 686 1041 1138 1051 928 634 1093 1149 952 857 916 843 545 362 343 527 593 477 457 355 315 355 341 410 335 231 193 189
2425 2294 2121 1791 1645 1478 1347 1163 831 328 475 458 314 82 147 600 900 1042 1202 1008 961 966 1086 1150 1099 994 911 597 301 228 83 426 438 284 219 218 117 29 100 72 109 120 107
2424 2342 2126 1961 1713 1546 1353 1254 995 555 663 562 372 144 13 154 809 1031 1049 1034 1076 916 1136 967 845 713 772 586 217 352 603 496 484 454 408 318 127 106 149 119 175 5 3
2380 2341 2187 1947 1759 1657 1432 1282 1203 782 639 793 590 369 67 437 740 908 934 1001 933 848 1001 698 627 840 740 703 690 694 530 435 458 417 354 345 322 159 120 102 0 0 0
2499 2342 2275 2098 1895 1592 1512 1487 1384 1187 708 673 660 623 553 614 613 799 711 582 665 758 867 686 587 582 419 443 569 662 578 477 395 333 329 462 305 129 244 210 32 9 0
2577 2520 2371 2155 1931 1715 1503 1429 1416 1374 1177 908 794 811 671 509 451 587 547 457 407 617 753 854 825 680 561 495 573 548 508 486 550 235 115 59 36 142 340 199 48 5 0
1325 2457 2519 2174 2037 1930 1605 1249 1301 1223 1236 1159 1061 1021 843 755 569 549 410 575 511 359 265 242 232 81 209 399 659 571 419 174 151 16 47 0 0 0 213 233 32 16 16
1197 1276 2401 2284 2034 1907 1797 1385 1350 1318 1110 1203 1092 1074 1132 993 930 621 363 512 535 275 158 28 55 359 472 274 378 457 214 211 8 3 0 0 0 0 0 0 0 0 9
1074 1325 1052 2006 2138 2019 1549 1501 1345 1383 1281 1095 1138 1085 1108 1170 1115 705 410 388 361 302 110 78 246 140 138 216 255 445 164 6 0 0 0 0 0 0 0 0 0 0 14
587 611 739 679 1418 1844 1716 1539 1424 1252 1350 1147 961 940 903 985 1050 698 357 289 192 194 83 46 166 4 0 29 124 51 0 0 0 0 0 0 0 0 0 0 0 0 0
193 254 508 424 463 1553 1629 1719 1497 1335 1380 1150 1083 889 769 305 349 294 260 144 17 4 4 79 15 0 0 0 0 0 0 0 0 0 0 0 0 0 0 0 0 0 0
174 289 478 537 894 1132 1614 1094 1639 1934 1471 1169 1039 825 606 163 12 222 212 92 15 10 7 60 56 0 0 0 0 0 0 0 0 0 0 0 0 0 0 1 2 0 0
305 174 303 350 665 1369 1232 479 157 0 3 90 187 773 596 269 61 117 426 380 183 33 116 142 51 0 0 0 0 0 0 0 0 0 0 0 0 0 0 0 0 0 0
416 327 276 275 279 451 393 276 103 0 0 0 0 1 116 325 279 344 321 175 83 94 174 20 0 0 0 0 0 0 0 0 0 0 0 0 0 1 0 0 0 0 0
171 297 251 313 239 120 73 70 34 107 10 0 0 0 0 0 159 184 41 44 67 92 67 0 0 0 0 0 0 0 0 0 0 0 0 0 0 0 0 0 0 0 0
131 304 269 259 105 96 70 37 13 7 0 0 0 0 0 0 0 0 28 247 268 200 1 15 5 0 0 0 0 0 0 0 0 0 0 0 0 0 0 0 1 2 0
377 441 414 65 13 39 69 147 55 0 1 0 0 0 0 0 0 0 0 110 238 96 38 26 0 0 0 0 0 0 0 0 0 0 0 0 0 1 1 0 0 1 1
276 448 0 0 0 0 0 29 26 0 0 0 0 0 0 0 11 0 0 79 130 45 1 0 0 0 0 0 0 0 0 0 0 0 0 0 0 0 0 0 1 0 0
307 238 0 0 6 34 33 0 0 0 0 0 0 0 0 0 0 0 0 3 24 0 0 0 0 0 0 0 0 0 0 0 0 0 0 0 0 0 0 0 0 0 0
358 162 6 1 12 120 91 1 0 0 0 0 0 3 0 0 0 12 9 0 0 0 0 0 0 0 0 0 0 0 0 0 0 0 0 0 0 0 0 0 0 0 0
340 144 0 1 5 21 22 3 2 1 18 0 19 10 0 0 0 1 15 0 0 0 0 0 0 0 0 0 0 0 0 0 0 0 0 0 0 0 0 0 0 0 0
271 54 0 0 0 3 7 0 0 13 60 20 2 2 2 2 1 40 10 0 0 0 0 0 0 0 0 0 0 0 0 0 0 0 0 0 0 0 0 0 0 0 0
145 13 0 0 8 12 14 0 0 9 43 45 66 12 4 5 32 12 0 0 0 0 0 0 0 0 0 0 0 0 0 0 0 0 0 0 0 0 0 0 0 0 1
CIN
-100 -94 -104 -109 -99 -114 -135 -155 -96 -104 -81 -60 -60 -38 -25 -23 -48 -45 -55 -61 -72 -88 -105 -48 -35 -36 -35 -42 -68 -95 -92 -72 -36 -53 -82 -116 -163 -174 0 -110 -86 -83 -57
-99 -98 -108 -124 -114 -123 -182 -198 -150 -125 -99 -83 -68 -65 -25 -24 -39 -45 -42 -43 -43 -41 -46 -45 -41 -30 -35 -37 -44 -35 -38 -53 -43 -28 -54 -53 -59 -101 -94 -92 -62 -41 -45
-118 -110 -126 -120 -133 -141 -131 -192 -177 -141 -82 -128 -134 -65 -33 -32 -25 -34 -46 -61 -71 -46 -34 -46 -38 -35 -53 -40 -33 -34 -44 -52 -54 -42 -37 -76 -53 -73 -47 -60 -39 -42 -39
-115 -118 -134 -147 -142 -147 -112 -126 -135 -153 -91 -95 -120 -83 -51 -43 -44 -38 -33 -39 -51 -34 -29 -31 -31 -31 -30 -44 -45 -43 -45 -38 -43 -39 -57 -49 -63 -70 -64 -45 -49 -74 -61
-107 -104 -117 -138 -160 -142 -112 -79 -87 -108 -80 -82 -86 -126 -92 -47 -39 -36 -29 -34 -30 -29 -26 -27 -35 -31 -36 -46 -51 -63 -74 -50 -40 -59 -76 -86 -89 -93 -66 -71 -78 -85 -103
-104 -101 -112 -112 -149 -162 -127 -94 -92 -104 -71 -58 -65 -85 -20 -99 -40 -30 -27 -35 -28 -27 -21 -35 -41 -43 -39 -42 -73 -61 -47 -45 -34 -43 -43 -54 -79 -67 -70 -62 -49 -100 -33
-67 -97 -102 -93 -104 -137 -134 -108 -84 -113 -84 -56 -48 -49 -86 -47 -46 -39 -32 -31 -29 -35 -32 -42 -39 -39 -45 -38 -39 -45 -58 -61 -59 -52 -40 -44 -40 -38 -35 -33 0 0 0
-61 -75 -87 -83 -80 -110 -116 -108 -83 -75 -94 -79 -68 -49 -47 -41 -42 -29 -32 -40 -36 -38 -36 -30 -36 -36 -48 -42 -35 -25 -29 -37 -46 -53 -54 -39 -42 -41 -29 -22 -31 -18 0
-58 -65 -67 -82 -75 -92 -96 -109 -96 -67 -58 -64 -55 -43 -49 -60 -55 -41 -35 -46 -41 -36 -40 -32 -39 -38 -42 -22 -26 -28 -23 -30 -36 -57 -71 -71 -67 -53 -41 -38 -74 -25 0
-129 -61 -61 -54 -51 -71 -85 -128 -118 -106 -81 -62 -43 -37 -31 -38 -58 -51 -56 -37 -33 -45 -54 -71 -73 -114 -87 -49 -20 -23 -23 -34 -35 -69 -51 0 0 0 -31 -27 -33 -12 -22
-103 -123 -55 -33 -37 -61 -77 -130 -112 -99 -99 -74 -55 -50 -32 -35 -39 -48 -70 -48 -49 -55 -61 -101 -103 -70 -50 -78 -48 -29 -29 -35 -54 -55 0 0 0 0 0 0 0 0 -30
-88 -73 -139 -68 -26 -45 -78 -116 -115 -92 -74 -86 -66 -53 -52 -34 -34 -44 -81 -83 -82 -51 -62 -79 -67 -110 -90 -70 -76 -36 -46 -82 0 0 0 0 0 0 0 0 0 0 -83
-116 -119 -138 -190 -122 -52 -17 -65 -94 -109 -66 -83 -83 -83 -77 -60 -38 -67 -83 -96 -104 -68 -81 -85 -69 -52 0 -143 -104 -106 0 0 0 0 0 0 0 0 0 0 0 0 0
-171 -186 -141 -205 -194 -49 -16 -37 -87 -108 -95 -104 -81 -91 -71 -83 -95 -77 -110 -159 -226 -221 -209 -104 -121 0 0 0 0 0 0 0 0 0 0 0 0 0 -7 0 0 0 0
-158 -160 -141 -153 -123 -101 -79 -82 -18 -13 -43 -75 -106 -117 -83 -90 -74 -148 -115 -155 -85 -209 -78 -126 -119 0 0 0 0 0 0 0 0 0 0 0 0 0 0 -26 -50 0 0
-96 -170 -150 -154 -119 -35 -45 -134 -267 0 -89 -249 -54 -75 -114 -98 -152 -179 -85 -97 -119 -195 -112 -94 -130 0 0 0 0 0 0 0 0 0 0 0 0 -11 0 0 0 0 0
-38 -77 -108 -135 -123 -107 -151 -207 -277 0 0 0 0 0 -71 -84 -103 -76 -82 -116 -172 -170 -103 -230 0 -9 0 0 0 0 0 0 0 0 0 0 0 -26 0 0 0 0 0
-83 -65 -103 -104 -102 -166 -267 -334 -379 -285 -118 0 0 0 0 0 -78 -84 -190 -261 -240 -235 -210 0 0 0 0 0 0 0 0 0 0 0 0 0 0 0 0 0 0 0 0
-82 -72 -96 -122 -185 -183 -234 -301 -339 -267 0 0 0 0 0 0 0 0 -219 -97 -100 -113 -17 -98 -51 0 0 0 0 0 0 0 0 0 0 0 0 -7 0 0 -17 -34 -14
-75 -56 -74 -229 -332 -289 -259 -222 -405 0 -147 0 0 0 0 0 0 0 0 -201 -114 -142 -187 -176 0 0 0 0 0 0 0 0 0 0 0 0 0 -16 -14 -5 -2 -13 -16
-79 -44 0 0 0 0 0 -447 -471 0 0 0 0 0 0 0 -269 0 0 -212 -145 -180 -15 0 0 0 0 0 0 0 0 0 0 0 0 0 0 0 -10 -12 -12 0 0
-91 -151 -49 0 -491 -414 -411 -9 0 0 0 0 0 -1 0 0 0 0 0 -17 -180 0 0 0 0 0 0 0 0 0 0 0 0 0 0 0 0 -12 -14 -18 0 0 0
-122 -249 -451 -62 -486 -156 -153 -21 0 0 0 0 0 -1 0 0 0 -255 -313 0 0 0 0 0 0 0 0 0 0 0 0 0 0 0 0 0 0 0 0 0 0 0 0
-135 -258 0 -58 -303 -156 -179 -3 0 -2 0 0 -39 -49 0 0 0 -160 -247 0 0 0 0 0 0 0 0 0 0 0 0 0 0 0 0 0 0 0 0 0 0 0 0
-156 -251 0 0 0 -70 -26 0 0 -6 0 -9 0 -10 0 0 -9 -208 -202 0 0 0 0 0 0 0 0 0 0 0 0 0 0 0 0 0 0 0 0 0 0 0 0
-158 -150 0 0 -82 -56 -58 -5 0 -21 -35 -75 -80 -138 -237 -247 -201 -143 0 0 0 0 0 0 0 0 0 0 0 0 0 0 0 0 0 0 0 0 0 0 0 0 -17
Wind_Speed
14 12 11 9 9 9 11 15 27 24 30 33 29 33 34 33 32 32 28 23 28 19 19 24 23 18 11 8 8 16 20 19 16 20 18 18 8 22 21 20 29 24 10
14 13 12 9 9 11 12 16 6 28 27 34 34 34 35 36 35 24 6 31 23 11 6 8 25 22 25 23 21 16 7 16 19 18 18 19 18 4 19 7 14 5 4
13 13 11 12 9 10 12 12 11 9 11 32 37 37 35 36 36 36 5 4 10 26 6 1 7 2 2 15 18 21 25 22 23 23 20 18 22 20 17 13 19 25 20
11 10 11 12 10 9 9 10 10 15 20 31 29 31 34 35 37 26 11 14 14 16 18 16 8 4 2 12 18 18 19 23 23 22 22 21 19 18 21 20 23 24 27
11 9 9 11 9 7 5 6 7 10 12 22 24 33 30 36 33 36 20 13 11 12 13 14 16 16 5 6 12 20 19 22 21 22 23 22 23 23 19 21 23 24 25
12 9 7 9 7 6 7 6 5 9 9 13 15 20 24 18 22 34 24 10 22 15 10 6 11 10 11 8 12 12 15 13 15 17 23 25 25 23 21 21 22 26 27
10 8 8 8 8 8 9 6 9 6 9 10 9 9 8 10 13 25 24 13 9 10 9 15 14 14 11 14 16 10 6 7 9 14 18 20 22 20 20 20 20 20 21
13 12 11 9 10 9 9 10 8 7 8 10 9 8 7 10 14 25 22 23 19 11 8 7 12 17 20 17 18 20 17 15 12 14 17 23 25 24 17 19 22 22 25
31 15 15 13 12 10 11 10 9 11 15 17 18 16 12 38 9 12 17 20 21 21 14 12 14 17 18 16 19 25 27 25 22 20 20 27 30 26 21 17 16 20 23
32 36 27 21 17 14 11 11 10 12 16 20 21 19 15 18 17 9 10 16 20 22 19 18 12 14 17 13 16 21 26 26 23 21 24 27 27 24 18 12 17 15 15
33 33 33 27 20 17 15 13 12 12 17 19 20 22 22 19 21 13 10 13 16 22 23 23 23 20 12 6 5 10 17 23 22 25 29 28 24 22 20 17 14 10 11
34 34 34 35 31 27 20 17 13 13 12 17 20 23 22 23 20 16 13 13 15 20 19 20 23 23 14 17 16 15 8 22 24 25 25 26 24 21 20 17 19 18 10
37 37 36 36 40 45 27 22 18 15 17 16 20 24 26 23 22 16 13 12 13 18 18 17 18 21 20 16 9 10 15 20 21 21 23 24 21 20 18 20 22 22 23
39 39 37 39 39 41 36 29 24 19 17 19 18 21 23 19 23 23 17 14 11 12 16 16 20 20 19 17 16 16 16 15 14 19 23 24 23 19 19 19 22 23 24
39 39 39 39 41 41 39 36 38 33 33 26 21 21 19 20 9 21 14 12 11 9 19 24 26 25 21 17 16 16 16 14 13 19 23 23 20 18 20 21 21 21 19
40 39 39 38 37 36 34 31 27 30 36 37 36 20 19 15 16 13 13 11 9 11 23 23 23 16 14 15 18 23 21 12 11 15 18 20 19 18 18 20 20 20 21
41 39 35 35 33 29 24 27 29 26 28 30 38 33 37 17 16 15 13 13 9 10 22 14 8 8 8 16 22 20 15 11 13 18 17 16 16 16 17 17 17 19 19
40 37 33 31 29 26 25 24 25 26 26 33 37 40 29 36 19 16 15 15 17 17 13 8 6 7 11 13 12 8 10 12 15 17 17 17 17 17 17 17 17 17 18
37 34 32 31 30 27 25 27 29 32 27 28 44 48 38 32 33 28 19 26 21 14 11 8 7 8 9 8 6 7 10 12 16 17 16 15 14 15 16 16 16 16 17
34 34 33 32 30 28 29 32 32 27 23 17 12 33 36 30 33 34 31 27 18 14 10 9 14 11 6 7 7 9 12 14 14 14 16 15 13 14 14 16 16 17 17
33 32 29 27 28 26 26 25 26 27 22 21 12 10 27 28 33 33 34 24 18 12 10 9 8 4 3 5 9 13 13 10 11 13 15 13 12 14 14 14 15 16 16
31 31 26 23 18 17 18 12 17 23 20 19 14 13 29 33 33 31 31 27 20 15 10 9 5 2 1 2 5 7 11 12 12 12 13 13 14 14 14 14 15 14 15
29 24 16 14 17 25 24 24 23 19 19 18 20 20 32 34 33 28 29 27 22 15 12 8 4 2 2 3 4 5 8 10 11 11 13 13 14 14 15 15 14 14 14
31 25 31 34 28 27 26 20 18 13 11 14 24 38 23 32 31 26 28 24 21 13 9 7 5 2 2 2 4 5 7 8 9 10 11 13 13 13 14 14 13 13 14
31 32 32 31 28 27 18 15 9 11 12 9 9 20 21 31 28 24 25 19 14 10 8 6 4 3 2 1 3 5 6 8 10 11 11 12 12 12 12 12 13 14 15
31 31 31 28 22 9 11 9 9 15 10 13 15 17 20 24 23 21 19 15 13 11 9 6 5 4 3 3 5 7 6 6 8 9 10 10 10 11 12 13 16 17 18
Wind_Direction
160 158 147 129 126 118 129 133 181 232 223 218 234 215 203 203 191 190 227 241 214 261 254 240 244 272 304 39 276 173 198 208 283 293 310 311 291 283 299 296 256 231 199
163 158 156 135 128 131 138 148 246 228 241 232 226 217 207 211 198 172 162 207 241 286 316 323 217 263 257 275 289 307 345 314 307 314 316 313 320 130 214 195 214 223 232
159 158 151 151 138 141 145 145 144 155 150 197 218 217 220 207 206 207 192 224 232 249 309 2 150 25 85 315 310 302 286 298 298 301 312 318 312 317 325 334 322 315 322
166 161 160 160 156 145 139 147 151 157 166 189 182 190 218 221 214 244 264 273 278 283 286 296 312 313 295 320 306 309 309 301 302 306 307 309 317 320 318 318 315 318 314
176 175 177 175 165 150 142 145 162 168 166 174 178 194 188 216 236 231 262 271 277 287 294 299 302 306 307 306 313 303 307 301 307 305 306 310 310 313 319 321 319 320 319
185 192 193 187 181 175 164 161 168 186 186 176 176 179 185 182 260 206 189 257 274 283 282 279 302 310 314 315 311 313 312 313 312 313 309 306 309 315 318 319 321 315 316
233 224 207 208 199 194 185 182 177 208 204 197 207 253 218 199 194 195 196 198 219 264 268 289 297 304 311 313 312 308 289 293 308 317 315 314 314 319 322 323 325 327 327
270 240 237 227 212 206 198 195 192 251 238 245 233 233 230 249 190 196 202 275 278 266 252 260 295 300 302 307 307 306 306 309 314 316 318 311 309 314 320 321 322 325 324
285 269 248 239 231 229 205 212 217 260 266 266 265 266 261 235 234 201 275 275 280 285 284 286 294 301 304 304 305 299 293 294 300 314 319 303 301 310 317 326 329 329 327
291 279 278 272 268 255 229 226 242 258 263 266 266 266 266 272 271 244 251 275 280 283 289 292 292 299 306 305 308 302 291 287 299 310 306 305 308 314 323 326 326 328 331
291 288 278 273 270 263 255 260 250 252 261 262 266 268 268 269 271 263 244 270 277 283 286 287 288 295 305 292 300 316 303 293 302 302 301 308 315 318 320 323 327 328 330
287 288 286 277 272 275 265 259 237 245 234 256 263 269 269 268 267 267 259 262 282 285 286 286 285 291 298 201 193 190 318 296 301 304 310 313 317 319 322 327 325 327 338
283 284 283 284 274 261 269 262 256 240 250 254 259 265 268 269 269 265 257 261 279 289 283 286 286 285 285 300 314 311 307 306 307 309 312 315 323 323 325 321 319 321 326
280 280 285 281 280 272 268 270 263 257 240 252 253 261 265 269 269 266 264 271 274 286 285 283 277 275 285 296 304 308 310 314 319 315 312 314 314 326 325 327 324 324 325
280 281 283 285 282 276 272 272 265 267 265 263 255 252 251 259 233 250 246 257 264 265 273 264 263 269 284 297 306 309 312 318 318 316 312 314 321 326 325 327 327 328 337
278 280 283 286 287 283 277 278 284 284 272 266 264 246 246 233 254 220 212 220 199 266 265 266 270 282 292 298 301 296 305 320 320 323 324 322 323 327 329 330 329 332 333
275 280 285 285 287 285 281 275 276 293 295 279 285 273 249 237 246 233 220 199 225 254 264 273 275 284 293 296 294 305 315 327 324 321 328 333 333 334 333 334 337 336 335
274 277 280 283 285 282 279 278 283 290 299 300 286 286 270 253 244 235 233 241 252 259 266 264 269 289 297 303 312 323 326 326 323 324 326 328 331 335 335 336 336 336 337
274 272 277 281 281 279 277 277 282 287 293 297 295 269 269 256 244 242 231 246 250 250 255 259 269 292 301 311 317 320 322 324 324 325 327 332 338 341 340 340 341 341 341
270 270 275 279 278 277 277 279 285 289 288 293 278 261 250 250 242 239 239 244 244 248 252 260 280 291 303 312 317 321 323 326 328 328 327 331 340 345 347 341 342 341 343
266 266 272 279 280 283 284 285 285 282 283 287 286 217 245 247 242 241 234 239 243 241 249 261 275 281 301 317 319 319 323 333 333 329 333 342 349 349 352 350 350 348 349
258 261 272 284 290 298 302 305 291 281 278 278 265 245 245 245 240 237 236 239 245 251 249 256 251 228 279 343 343 340 332 331 335 336 339 341 345 349 351 349 350 354 352
251 264 276 281 281 275 300 304 304 297 271 263 254 251 242 241 233 233 237 242 248 250 251 245 221 241 301 331 353 2 357 347 345 346 342 343 347 349 348 349 352 354 356
238 250 221 217 213 240 295 314 324 318 316 267 267 250 228 232 231 231 234 244 248 246 232 218 221 252 306 321 339 358 7 6 6 1 355 349 347 351 354 358 3 0 354
225 211 202 202 225 275 313 320 359 317 342 324 272 230 226 221 221 224 233 238 231 223 216 206 223 270 312 300 328 329 337 348 348 348 347 346 347 350 353 356 354 349 346
208 203 210 221 215 83 349 33 55 296 255 253 241 228 221 220 222 226 229 224 223 222 218 228 247 271 287 289 308 314 315 329 336 339 340 340 339 340 339 338 335 334 334